Location: Katowice
(50.2611°N, 19.0242°E)
Time: 06:10:19
(UTC+02:00)

Vanguard 1 - Pass Details

Date: 01 October 2020
Orbit: 650 x 3832 km, 34.2° (Epoch: 21 October)

Event Time Altitude Azimuth Distance (km) Brightness Sun altitude
Rises 21:10:38 0° 223° (SW) 4,694 13.7 -26.9°
Reaches altitude 10° 21:16:06 10° 199° (SSW) 3,064 12.5 -27.7°
Enters shadow 21:16:43 11° 195° (SSW) 2,915 12.3 -27.7°
